Springfield, MO

9:12 PM CST on December 08, 2019 (GMT -0600)
Springfield-Branson Regional

Weather History for KSGF - October, 2019

Change the Weather History Date:

Thursday, October 10, 2019

  Actual Average Record
Temperature  
Mean Temperature 60 °F 60 °F  
Max Temperature 71 °F 71 °F 91 °F (1963)
Min Temperature 49 °F 48 °F 27 °F (2000)
Degree Days  
Heating Degree Days 5 7  
Month to date heating degree days 30 56  
Since 1 July heating degree days 30 111  
Cooling Degree Days 0 1  
Month to date cooling degree days 37 16  
Year to date cooling degree days 1687 1375  
Growing Degree Days 11 (Base 50)    
Moisture  
Dew Point 62 °F    
Average Humidity 82    
Maximum Humidity 90    
Minimum Humidity 73    
Precipitation  
Precipitation 1.54 in 0.11 in 1.78 in (2014)
Month to date precipitation 2.64 1.19  
Year to date precipitation 44.33 35.91  
Snow  
Snow 0.00 in - - ()
Month to date snowfall 0.0  
Since 1 July snowfall 0.0  
Since 1 September snowfall 0.0  
Snow Depth 0.00 in    
Sea Level Pressure  
Sea Level Pressure 29.85 in    
Wind  
Wind Speed 14 mph (South)    
Max Wind Speed 25 mph    
Max Gust Speed 35 mph    
Visibility 8 miles    
Events Rain , Thunderstorm    
T = Trace of Precipitation, MM = Missing Value Source: NWS Daily Summary

Daily Weather History Graph

Daily Weather History Graph

Search for Another Location

Airport or City:

Astronomy

Oct. 10, 2019 Rise Set
Actual Time 7:16 AM CDT 6:43 PM CDT
Civil Twilight 6:50 AM CDT 7:09 PM CDT
Nautical Twilight 6:20 AM CDT 7:40 PM CDT
Astronomical Twilight 5:50 AM CDT 8:10 PM CDT
Moon 5:40 PM CDT (10/10) 4:07 AM CDT (10/10)
Length of Visible Light 12h 19m
Length of Day
11h 27m
Waxing Gibbous, 91% of the Moon is Illuminated
Oct 10
Waxing Gibbous
Oct 13
Full
Oct 21
Last Quarter
Oct 27
New
Nov 4
First Quarter

Hourly Weather History & Observations

Time (CDT) Temp. Dew Point Humidity Pressure Visibility Wind Dir Wind Speed Gust Speed Precip Events Conditions
12:52 AM 64.0 °F 55.9 °F 75% 29.89 in 10.0 mi SSE 17.3 mph - N/A   Clear
1:52 AM 64.0 °F 55.9 °F 75% 29.88 in 10.0 mi SSE 15.0 mph - N/A   Clear
2:52 AM 64.9 °F 57.0 °F 75% 29.86 in 10.0 mi SSE 17.3 mph 26.5 mph N/A   Mostly Cloudy
3:52 AM 64.9 °F 59.0 °F 81% 29.83 in 10.0 mi SSE 19.6 mph 29.9 mph 0.01 in Rain Light Rain
4:03 AM 64.9 °F 60.1 °F 84% 29.86 in 10.0 mi SSE 19.6 mph 33.4 mph 0.00 in Rain , Thunderstorm Light Rain
4:10 AM 64.9 °F 60.1 °F 84% 29.85 in 6.0 mi SE 19.6 mph - 0.03 in Rain , Thunderstorm Thunderstorms and Rain
4:52 AM 64.9 °F 60.1 °F 84% 29.81 in 10.0 mi SSE 19.6 mph 29.9 mph 0.05 in   Overcast
5:52 AM 66.0 °F 60.1 °F 81% 29.81 in 10.0 mi SSE 21.9 mph 29.9 mph N/A   Mostly Cloudy
6:52 AM 66.0 °F 60.1 °F 81% 29.81 in 10.0 mi SSE 17.3 mph 29.9 mph N/A   Partly Cloudy
7:52 AM 66.0 °F 60.1 °F 81% 29.82 in 10.0 mi SSE 18.4 mph - N/A   Clear
8:52 AM 68.0 °F 61.0 °F 78% 29.80 in 10.0 mi SSE 19.6 mph 26.5 mph N/A   Clear
9:52 AM 70.0 °F 62.1 °F 76% 29.82 in 10.0 mi SSE 13.8 mph - N/A   Partly Cloudy
10:36 AM 70.0 °F 62.1 °F 76% 29.87 in 10.0 mi South 9.2 mph - 0.00 in Rain Light Rain
10:52 AM 70.0 °F 63.0 °F 78% 29.86 in 10.0 mi South 8.1 mph - 0.00 in Thunderstorm Overcast
11:11 AM 68.0 °F 63.0 °F 84% 29.89 in 10.0 mi South 8.1 mph - 0.00 in Rain Light Rain
11:21 AM 68.0 °F 63.0 °F 84% 29.87 in 9.0 mi SSE 12.7 mph - 0.00 in Rain , Thunderstorm Light Rain
11:40 AM 68.0 °F 63.0 °F 84% 29.86 in 7.0 mi SSE 11.5 mph - 0.01 in Rain Light Rain
11:52 AM 66.9 °F 64.0 °F 90% 29.86 in 6.0 mi South 13.8 mph - 0.01 in Rain , Thunderstorm Light Thunderstorms and Rain
12:13 PM 66.9 °F 64.0 °F 90% 29.85 in 4.0 mi SSE 17.3 mph - 0.03 in Rain , Thunderstorm Light Rain
12:52 PM 66.9 °F 64.0 °F 90% 29.82 in 3.0 mi SSE 17.3 mph - 0.11 in Rain , Thunderstorm Light Rain
1:03 PM 66.9 °F 64.0 °F 90% 29.83 in 2.5 mi South 11.5 mph - 0.05 in Rain , Thunderstorm Thunderstorms and Rain
1:15 PM 66.9 °F 64.9 °F 93% 29.83 in 1.8 mi South 16.1 mph - 0.12 in Rain , Thunderstorm Heavy Rain
1:33 PM 66.9 °F 64.9 °F 93% 29.83 in 1.0 mi SSE 11.5 mph - 0.43 in Rain , Thunderstorm Heavy Thunderstorms and Rain
1:41 PM 66.9 °F 64.9 °F 93% 29.84 in 3.0 mi SSE 11.5 mph - 0.52 in Rain , Thunderstorm Thunderstorms and Rain
1:52 PM 66.9 °F 64.9 °F 93% 29.81 in 2.5 mi SSE 10.4 mph - 0.61 in Rain , Thunderstorm Heavy Thunderstorms and Rain
2:03 PM 66.9 °F 64.9 °F 93% 29.84 in 4.0 mi SSE 8.1 mph - 0.03 in Rain , Thunderstorm Thunderstorms and Rain
2:26 PM 68.0 °F 64.9 °F 90% 29.83 in 8.0 mi SE 8.1 mph - 0.04 in Rain , Thunderstorm Light Thunderstorms and Rain
2:42 PM 68.0 °F 64.9 °F 90% 29.82 in 2.5 mi SSE 16.1 mph - 0.12 in Rain , Thunderstorm Light Thunderstorms and Rain
2:49 PM 68.0 °F 64.4 °F 88% 29.83 in 8.0 mi SSE 15.0 mph - 0.12 in Rain , Thunderstorm Light Thunderstorms and Rain
2:52 PM 68.0 °F 64.9 °F 90% 29.80 in 8.0 mi SSE 13.8 mph - 0.12 in Rain , Thunderstorm Light Thunderstorms and Rain
3:03 PM 69.1 °F 66.0 °F 90% 29.82 in 10.0 mi SE 12.7 mph - 0.01 in Thunderstorm Mostly Cloudy
3:10 PM 69.1 °F 66.0 °F 90% 29.83 in 10.0 mi SSE 11.5 mph - 0.01 in   Mostly Cloudy
3:52 PM 70.0 °F 66.0 °F 87% 29.80 in 10.0 mi SSE 11.5 mph - 0.01 in   Scattered Clouds
4:38 PM 71.1 °F 68.0 °F 90% 29.81 in 8.0 mi South 12.7 mph - 0.00 in Rain , Thunderstorm Light Rain
4:52 PM 71.1 °F 66.9 °F 87% 29.79 in 10.0 mi South 13.8 mph 24.2 mph 0.00 in   Mostly Cloudy
5:33 PM 70.0 °F 66.9 °F 90% 29.81 in 10.0 mi SSE 11.5 mph - 0.02 in Thunderstorm Mostly Cloudy
5:52 PM 70.0 °F 66.9 °F 90% 29.78 in 10.0 mi SSE 11.5 mph - 0.02 in Thunderstorm Mostly Cloudy
6:05 PM 70.0 °F 66.9 °F 90% 29.80 in 10.0 mi SSE 16.1 mph 24.2 mph N/A   Mostly Cloudy
6:52 PM 69.1 °F 66.9 °F 93% 29.78 in 9.0 mi SSE 17.3 mph - N/A   Mostly Cloudy
7:17 PM 69.1 °F 66.0 °F 90% 29.82 in 10.0 mi SSE 17.3 mph 27.6 mph N/A Thunderstorm Thunderstorm
7:33 PM 69.1 °F 66.0 °F 90% 29.82 in 10.0 mi South 15.0 mph - 0.00 in Rain Light Rain
7:45 PM 69.1 °F 66.9 °F 93% 29.85 in 6.0 mi SSW 9.2 mph 19.6 mph 0.01 in Rain , Thunderstorm Rain
7:49 PM 69.8 °F 66.2 °F 88% 29.85 in 5.0 mi SSW 6.9 mph - 0.03 in Rain , Thunderstorm Heavy Thunderstorms and Rain
7:52 PM 69.1 °F 66.9 °F 93% 29.83 in 5.0 mi SSW 8.1 mph - 0.06 in Rain , Thunderstorm Thunderstorms and Rain
8:00 PM 69.1 °F 66.9 °F 93% 29.85 in 10.0 mi SSW 8.1 mph - 0.00 in Rain , Thunderstorm Light Thunderstorms and Rain
8:02 PM 69.1 °F 66.9 °F 93% 29.85 in 10.0 mi SSW 8.1 mph - 0.00 in Rain , Thunderstorm Light Thunderstorms and Rain
8:16 PM 69.1 °F 66.9 °F 93% 29.86 in 8.0 mi SW 4.6 mph - 0.00 in Rain , Thunderstorm Light Rain
8:28 PM 69.1 °F 66.9 °F 93% 29.87 in 5.0 mi South 11.5 mph - 0.01 in Rain , Thunderstorm Light Thunderstorms and Rain
8:41 PM 68.0 °F 64.9 °F 90% 29.88 in 6.0 mi South 8.1 mph 19.6 mph 0.05 in Rain , Thunderstorm Heavy Thunderstorms and Rain
8:52 PM 68.0 °F 64.9 °F 90% 29.85 in 3.0 mi SW 8.1 mph - 0.13 in Rain , Thunderstorm Thunderstorms and Rain
9:04 PM 64.9 °F 62.1 °F 90% 29.90 in 10.0 mi West 13.8 mph 23.0 mph 0.01 in Rain Light Rain
9:16 PM 62.1 °F 59.0 °F 90% 29.91 in 8.0 mi WNW 12.7 mph 21.9 mph 0.01 in Rain Light Rain
9:52 PM 57.9 °F 55.9 °F 93% 29.87 in 10.0 mi NNW 13.8 mph - 0.03 in Rain Light Rain
10:52 PM 54.0 °F 52.0 °F 93% 29.92 in 10.0 mi NNW 3.5 mph 18.4 mph 0.00 in Rain , Thunderstorm Light Rain
10:59 PM 54.0 °F 51.1 °F 90% 29.94 in 10.0 mi WNW 8.1 mph - 0.00 in Rain , Thunderstorm Light Rain
11:47 PM 51.8 °F 48.2 °F 88% 29.96 in 5.0 mi NW 13.8 mph - 0.08 in Rain , Thunderstorm Heavy Rain
11:52 PM 51.1 °F 48.9 °F 92% 29.95 in 5.0 mi NW 12.7 mph 23.0 mph 0.11 in Rain , Thunderstorm Rain
11:56 PM 51.1 °F 48.9 °F 92% 29.96 in 5.0 mi NW 15.0 mph 23.0 mph 0.01 in Rain Rain